Menu Close Menu
Station Historical Data
Daily Summary for August 4, 2017 Units:  Metric    English   Both
« Previous Day
Next Day »
Daily Weekly Monthly Yearly Custom
  High: Low: Average:
Temperature: 29.8 °C 20.3 °C 24.8 °C
Dew Point: 21.4 °C 18.6 °C 20.1 °C
Humidity: 91% 55% 76%
Wind Speed: 1.6km/h 0km/h 0km/h
Wind Gust: 4.8km/h - -
Wind- - NW
Pressure: 1018.8 hPa 1014.8 hPa -
Precipitation: 0 mm    
Historical Graphs
 
 
Tabular Data for August 4, 2017
Time Temperature Dew Point Pressure Wind Wind Speed Wind Gust Humidity Rainfall Rate (Hourly) solar Conditions
00:00 22.1 °C 19.1 °C 1018.8 hPa Calm     83% 0 mm WeatherDisplay:10.37 W/m2 BKN
00:10 22.1 °C 19.1 °C 1018.8 hPa Calm     83% 0 mm WeatherDisplay:10.37 W/m2 BKN
00:15 22.1 °C 19.1 °C 1018.8 hPa Calm     83% 0 mm WeatherDisplay:10.37 W/m2 BKN
00:20 22.1 °C 19.2 °C 1018.8 hPa Calm     84% 0 mm WeatherDisplay:10.37 W/m2 FEW
00:25 22.1 °C 19.3 °C 1018.8 hPa Calm     84% 0 mm WeatherDisplay:10.37 W/m2 FEW
00:30 22.1 °C 19.1 °C 1018.8 hPa Calm     83% 0 mm WeatherDisplay:10.37 W/m2 FEW
00:40 22 °C 19 °C 1018.8 hPa Calm     83% 0 mm WeatherDisplay:10.37 W/m2 FEW
00:45 22 °C 19.2 °C 1018.8 hPa Calm     84% 0 mm WeatherDisplay:10.37 W/m2 FEW
00:50 21.9 °C 19.1 °C 1018.8 hPa Calm     84% 0 mm WeatherDisplay:10.37 W/m2 FEW
00:55 21.9 °C 19.1 °C 1018.8 hPa Calm     84% 0 mm WeatherDisplay:10.37 W/m2 FEW
01:00 21.9 °C 19.1 °C 1018.8 hPa Calm     84% 0 mm WeatherDisplay:10.37 W/m2 FEW
01:05 21.9 °C 19.1 °C 1018.8 hPa Calm     84% 0 mm WeatherDisplay:10.37 W/m2 FEW
01:10 21.9 °C 19.1 °C 1018.8 hPa Calm     84% 0 mm WeatherDisplay:10.37 W/m2 FEW
01:15 21.9 °C 19.1 °C 1018.8 hPa Calm     84% 0 mm WeatherDisplay:10.37 W/m2 FEW
01:20 21.8 °C 19.1 °C 1018.8 hPa Calm     84% 0 mm WeatherDisplay:10.37 W/m2 SCT
01:25 21.8 °C 19 °C 1018.8 hPa Calm     84% 0 mm WeatherDisplay:10.37 W/m2 SCT
01:30 21.8 °C 19 °C 1018.8 hPa Calm     84% 0 mm WeatherDisplay:10.37 W/m2 SCT
01:35 21.8 °C 18.9 °C 1018.5 hPa Calm     84% 0 mm WeatherDisplay:10.37 W/m2 SCT
01:45 21.8 °C 18.9 °C 1018.5 hPa Calm     84% 0 mm WeatherDisplay:10.37 W/m2 SCT
01:50 21.7 °C 18.9 °C 1018.5 hPa Calm     84% 0 mm WeatherDisplay:10.37 W/m2 SCT
02:00 21.7 °C 18.9 °C 1018.2 hPa Calm     84% 0 mm WeatherDisplay:10.37 W/m2 SCT
02:05 21.7 °C 18.8 °C 1018.2 hPa Calm     84% 0 mm WeatherDisplay:10.37 W/m2 SCT
02:10 21.7 °C 18.8 °C 1018.2 hPa Calm     84% 0 mm WeatherDisplay:10.37 W/m2 SCT
02:15 21.6 °C 19 °C 1018.2 hPa Calm     85% 0 mm WeatherDisplay:10.37 W/m2 SCT
02:20 21.6 °C 18.9 °C 1017.8 hPa Calm     85% 0 mm WeatherDisplay:10.37 W/m2 SCT
02:25 21.6 °C 18.9 °C 1017.8 hPa Calm     85% 0 mm WeatherDisplay:10.37 W/m2 SCT
02:30 21.5 °C 18.9 °C 1017.8 hPa Calm     85% 0 mm WeatherDisplay:10.37 W/m2 SCT
02:40 21.3 °C 18.7 °C 1017.8 hPa Calm     85% 0 mm WeatherDisplay:10.37 W/m2 SCT
02:45 21.2 °C 18.8 °C 1017.8 hPa Calm     86% 0 mm WeatherDisplay:10.37 W/m2 SCT
02:50 21.2 °C 18.7 °C 1017.8 hPa Calm     86% 0 mm WeatherDisplay:10.37 W/m2 SCT
02:55 21.1 °C 18.7 °C 1017.8 hPa Calm     86% 0 mm WeatherDisplay:10.37 W/m2 SCT
03:00 21 °C 18.8 °C 1017.8 hPa Calm     87% 0 mm WeatherDisplay:10.37 W/m2 SCT
03:05 20.9 °C 18.7 °C 1017.8 hPa Calm     87% 0 mm WeatherDisplay:10.37 W/m2 SCT
03:10 20.9 °C 18.7 °C 1017.8 hPa Calm     87% 0 mm WeatherDisplay:10.37 W/m2 SCT
03:15 20.9 °C 18.7 °C 1017.8 hPa Calm     87% 0 mm WeatherDisplay:10.37 W/m2 SCT
03:20 20.8 °C 18.8 °C 1017.8 hPa Calm     88% 0 mm WeatherDisplay:10.37 W/m2 BKN
03:25 20.8 °C 18.8 °C 1017.8 hPa Calm     88% 0 mm WeatherDisplay:10.37 W/m2 BKN
03:30 20.8 °C 18.7 °C 1017.8 hPa Calm     88% 0 mm WeatherDisplay:10.37 W/m2 BKN
03:35 20.8 °C 18.7 °C 1017.8 hPa Calm     88% 0 mm WeatherDisplay:10.37 W/m2 BKN
03:40 20.7 °C 18.7 °C 1017.8 hPa Calm     88% 0 mm WeatherDisplay:10.37 W/m2 BKN
03:45 20.7 °C 18.6 °C 1017.8 hPa Calm     88% 0 mm WeatherDisplay:10.37 W/m2 BKN
03:50 20.7 °C 18.8 °C 1017.8 hPa Calm     89% 0 mm WeatherDisplay:10.37 W/m2 OVC
03:55 20.7 °C 18.8 °C 1018.2 hPa Calm     89% 0 mm WeatherDisplay:10.37 W/m2 OVC
04:00 20.7 °C 18.8 °C 1018.2 hPa Calm     89% 0 mm WeatherDisplay:10.37 W/m2 OVC
04:05 20.7 °C 18.8 °C 1018.2 hPa Calm     89% 0 mm WeatherDisplay:10.37 W/m2 OVC
04:10 20.8 °C 18.9 °C 1017.8 hPa Calm     89% 0 mm WeatherDisplay:10.37 W/m2 OVC
04:15 20.8 °C 18.9 °C 1017.8 hPa Calm     89% 0 mm WeatherDisplay:10.37 W/m2 OVC
04:20 20.8 °C 18.9 °C 1017.8 hPa Calm     89% 0 mm WeatherDisplay:10.37 W/m2 OVC
04:25 20.8 °C 19 °C 1017.8 hPa Calm     89% 0 mm WeatherDisplay:10.37 W/m2 OVC
04:30 20.9 °C 19 °C 1017.8 hPa Calm     89% 0 mm WeatherDisplay:10.37 W/m2 OVC
04:35 20.9 °C 19 °C 1017.8 hPa Calm     89% 0 mm WeatherDisplay:10.37 W/m2 OVC
04:40 20.9 °C 19 °C 1017.5 hPa Calm   1.6 km/h 89% 0 mm WeatherDisplay:10.37 W/m2 OVC
04:45 20.9 °C 19 °C 1017.5 hPa Calm     89% 0 mm WeatherDisplay:10.37 W/m2 OVC
04:50 20.9 °C 19 °C 1017.5 hPa Calm     89% 0 mm WeatherDisplay:10.37 W/m2 OVC
04:55 20.9 °C 19 °C 1017.5 hPa Calm     89% 0 mm WeatherDisplay:10.37 W/m2 OVC
05:00 20.9 °C 19 °C 1017.8 hPa Calm     89% 0 mm WeatherDisplay:10.37 W/m2 OVC
05:05 20.9 °C 19 °C 1017.8 hPa Calm     89% 0 mm WeatherDisplay:10.37 W/m2 OVC
05:10 20.9 °C 19.1 °C 1017.8 hPa Calm     89% 0 mm WeatherDisplay:10.37 W/m2 OVC
05:15 20.9 °C 19.1 °C 1017.8 hPa Calm     89% 0 mm WeatherDisplay:10.37 W/m2 OVC
05:20 20.9 °C 19.1 °C 1017.8 hPa Calm     89% 0 mm WeatherDisplay:10.37 W/m2 OVC
05:25 20.9 °C 19.1 °C 1017.8 hPa Calm     89% 0 mm WeatherDisplay:10.37 W/m2 OVC
05:30 20.9 °C 19.1 °C 1017.8 hPa Calm     89% 0 mm WeatherDisplay:10.37 W/m2 OVC
05:40 20.9 °C 19.1 °C 1017.8 hPa Calm     89% 0 mm WeatherDisplay:10.37 W/m2 OVC
05:45 20.9 °C 19 °C 1017.8 hPa Calm     89% 0 mm WeatherDisplay:10.37 W/m2 OVC
05:50 20.9 °C 19 °C 1017.8 hPa Calm     89% 0 mm WeatherDisplay:10.37 W/m2 OVC
05:55 20.8 °C 18.9 °C 1017.8 hPa Calm     89% 0 mm WeatherDisplay:10.37 W/m2 OVC
06:00 20.8 °C 18.9 °C 1017.8 hPa Calm     89% 0 mm WeatherDisplay:10.37 W/m2 OVC
06:05 20.7 °C 18.8 °C 1017.8 hPa Calm     89% 0 mm WeatherDisplay:10.37 W/m2 BKN
06:10 20.7 °C 18.9 °C 1017.8 hPa Calm     90% 0 mm WeatherDisplay:10.37 W/m2 BKN
06:15 20.6 °C 18.9 °C 1017.8 hPa Calm     90% 0 mm WeatherDisplay:10.37 W/m2 BKN
06:20 20.6 °C 18.9 °C 1017.8 hPa Calm     90% 0 mm WeatherDisplay:10.37 W/m2 SCT
06:25 20.6 °C 18.8 °C 1017.8 hPa Calm     90% 0 mm WeatherDisplay:10.37 W/m2 SCT
06:30 20.5 °C 18.8 °C 1017.8 hPa Calm     90% 0 mm WeatherDisplay:10.37 W/m2 SCT
06:35 20.4 °C 18.7 °C 1018.2 hPa Calm     90% 0 mm WeatherDisplay:10.37 W/m2 SCT
06:40 20.4 °C 18.7 °C 1018.2 hPa Calm     90% 0 mm WeatherDisplay:10.37 W/m2 SCT
06:45 20.3 °C 18.6 °C 1018.2 hPa Calm     90% 0 mm WeatherDisplay:10.37 W/m2 SCT
06:50 20.3 °C 18.6 °C 1018.2 hPa Calm     90% 0 mm WeatherDisplay:10.37 W/m2 SCT
06:55 20.3 °C 18.6 °C 1018.2 hPa Calm     90% 0 mm WeatherDisplay:10.37 W/m2 SCT
07:00 20.4 °C 18.9 °C 1018.2 hPa Calm     91% 0 mm WeatherDisplay:10.37 W/m2 SCT
07:05 20.4 °C 18.9 °C 1018.2 hPa Calm     91% 0 mm WeatherDisplay:10.37 W/m2 BKN
07:10 20.4 °C 18.9 °C 1018.2 hPa Calm     91% 0 mm WeatherDisplay:10.37 W/m2 BKN
07:15 20.5 °C 19 °C 1018.5 hPa Calm     91% 0 mm WeatherDisplay:10.37 W/m2 BKN
07:20 20.6 °C 19.1 °C 1018.5 hPa Calm     91% 0 mm WeatherDisplay:10.37 W/m2 OVC
07:25 20.6 °C 19.1 °C 1018.5 hPa Calm     91% 0 mm WeatherDisplay:10.37 W/m2 OVC
07:30 20.7 °C 19.2 °C 1018.5 hPa Calm     91% 0 mm WeatherDisplay:10.37 W/m2 OVC
07:35 20.7 °C 19.2 °C 1018.5 hPa Calm     91% 0 mm WeatherDisplay:10.37 W/m2 OVC
07:40 20.8 °C 19.3 °C 1018.5 hPa Calm     91% 0 mm WeatherDisplay:10.37 W/m2 OVC
07:45 20.9 °C 19.4 °C 1018.5 hPa Calm     91% 0 mm WeatherDisplay:10.37 W/m2 OVC
07:50 20.9 °C 19.4 °C 1018.5 hPa Calm     91% 0 mm WeatherDisplay:10.37 W/m2 OVC
07:55 21 °C 19.4 °C 1018.5 hPa Calm     91% 0 mm WeatherDisplay:10.37 W/m2 OVC
08:00 21.1 °C 19.6 °C 1018.5 hPa Calm     91% 0 mm WeatherDisplay:10.37 W/m2 OVC
08:05 21.1 °C 19.6 °C 1018.5 hPa Calm     91% 0 mm WeatherDisplay:10.37 W/m2 OVC
08:10 21.2 °C 19.7 °C 1018.5 hPa Calm     91% 0 mm WeatherDisplay:10.37 W/m2 OVC
08:30 21.8 °C 19.9 °C 1018.8 hPa Calm     89% 0 mm WeatherDisplay:10.37 W/m2 BKN
08:40 22.2 °C 19.9 °C 1018.8 hPa Calm     87% 0 mm WeatherDisplay:10.37 W/m2 BKN
08:45 22.4 °C 19.9 °C 1018.8 hPa Calm     86% 0 mm WeatherDisplay:10.37 W/m2 BKN
08:50 22.5 °C 19.8 °C 1018.8 hPa Calm     85% 0 mm WeatherDisplay:10.37 W/m2 BKN
08:55 22.6 °C 19.9 °C 1018.8 hPa Calm     85% 0 mm WeatherDisplay:10.37 W/m2 BKN
09:00 22.7 °C 20.1 °C 1018.8 hPa Calm     85% 0 mm WeatherDisplay:10.37 W/m2 BKN
09:05 22.8 °C 20.2 °C 1018.8 hPa Calm     85% 0 mm WeatherDisplay:10.37 W/m2 BKN
09:10 22.9 °C 20.1 °C 1018.8 hPa Calm     84% 0 mm WeatherDisplay:10.37 W/m2 BKN
09:15 23.1 °C 20 °C 1018.8 hPa Calm     83% 0 mm WeatherDisplay:10.37 W/m2 BKN
09:20 23.2 °C 20.3 °C 1018.8 hPa Calm     84% 0 mm WeatherDisplay:10.37 W/m2 BKN
09:25 23.3 °C 20.4 °C 1018.8 hPa Calm     84% 0 mm WeatherDisplay:10.37 W/m2 BKN
09:30 23.3 °C 20.3 °C 1018.8 hPa Calm     83% 0 mm WeatherDisplay:10.37 W/m2 BKN
09:35 23.4 °C 20.4 °C 1018.8 hPa Calm     83% 0 mm WeatherDisplay:10.37 W/m2 BKN
09:40 23.6 °C 20.5 °C 1018.8 hPa Calm     83% 0 mm WeatherDisplay:10.37 W/m2 BKN
09:45 23.6 °C 20.2 °C 1018.8 hPa Calm     81% 0 mm WeatherDisplay:10.37 W/m2 BKN
09:50 23.7 °C 20.4 °C 1018.8 hPa Calm   1.6 km/h 82% 0 mm WeatherDisplay:10.37 W/m2 OVC
09:55 23.7 °C 20.4 °C 1018.8 hPa Calm     82% 0 mm WeatherDisplay:10.37 W/m2 OVC
10:00 23.8 °C 20.3 °C 1018.8 hPa Calm     81% 0 mm WeatherDisplay:10.37 W/m2 OVC
10:05 23.8 °C 20.6 °C 1018.8 hPa Calm     82% 0 mm WeatherDisplay:10.37 W/m2 OVC
10:10 23.8 °C 20.3 °C 1018.8 hPa Calm   1.6 km/h 81% 0 mm WeatherDisplay:10.37 W/m2 OVC
10:15 23.8 °C 20.6 °C 1018.5 hPa Calm     82% 0 mm WeatherDisplay:10.37 W/m2 OVC
10:20 24.2 °C 20.7 °C 1018.8 hPa Calm     81% 0 mm WeatherDisplay:10.37 W/m2 OVC
10:25 24.6 °C 20.8 °C 1018.8 hPa Calm   3.2 km/h 80% 0 mm WeatherDisplay:10.37 W/m2 OVC
10:30 24.7 °C 20.4 °C 1018.5 hPa Calm   1.6 km/h 77% 0 mm WeatherDisplay:10.37 W/m2 OVC
10:35 24.8 °C 20.7 °C 1018.8 hPa Calm   1.6 km/h 78% 0 mm WeatherDisplay:10.37 W/m2 OVC
10:40 24.8 °C 20.5 °C 1018.8 hPa Calm   1.6 km/h 77% 0 mm WeatherDisplay:10.37 W/m2 OVC
10:45 24.8 °C 20.7 °C 1018.8 hPa Calm     78% 0 mm WeatherDisplay:10.37 W/m2 OVC
10:50 24.9 °C 20.6 °C 1018.8 hPa Calm   1.6 km/h 77% 0 mm WeatherDisplay:10.37 W/m2 OVC
10:55 24.8 °C 20.7 °C 1018.8 hPa Calm   1.6 km/h 78% 0 mm WeatherDisplay:10.37 W/m2 OVC
11:00 24.9 °C 20.8 °C 1018.8 hPa Calm   1.6 km/h 78% 0 mm WeatherDisplay:10.37 W/m2 OVC
11:05 25.1 °C 20.8 °C 1018.8 hPa Calm   3.2 km/h 77% 0 mm WeatherDisplay:10.37 W/m2 OVC
11:10 25.4 °C 20.6 °C 1018.8 hPa Calm   3.2 km/h 75% 0 mm WeatherDisplay:10.37 W/m2 OVC
11:15 25.6 °C 20.8 °C 1018.8 hPa Calm     75% 0 mm WeatherDisplay:10.37 W/m2 OVC
11:20 25.7 °C 20.9 °C 1018.8 hPa Calm   1.6 km/h 75% 0 mm WeatherDisplay:10.37 W/m2 OVC
11:25 25.7 °C 20.7 °C 1018.8 hPa Calm   1.6 km/h 74% 0 mm WeatherDisplay:10.37 W/m2 OVC
11:30 25.6 °C 20.8 °C 1018.8 hPa Calm   1.6 km/h 75% 0 mm WeatherDisplay:10.37 W/m2 OVC
11:35 25.8 °C 20.6 °C 1018.8 hPa Calm   1.6 km/h 73% 0 mm WeatherDisplay:10.37 W/m2 OVC
11:40 26.1 °C 20.4 °C 1018.8 hPa NNW 1.6 km/h 3.2 km/h 71% 0 mm WeatherDisplay:10.37 W/m2 OVC
11:45 26.1 °C 20.6 °C 1018.8 hPa Calm   3.2 km/h 72% 0 mm WeatherDisplay:10.37 W/m2 OVC
11:50 26.2 °C 20.4 °C 1018.8 hPa Calm   1.6 km/h 71% 0 mm WeatherDisplay:10.37 W/m2 OVC
11:55 26.2 °C 20.3 °C 1018.8 hPa Calm   1.6 km/h 70% 0 mm WeatherDisplay:10.37 W/m2 OVC
12:00 26.3 °C 20.6 °C 1018.5 hPa Calm     71% 0 mm WeatherDisplay:10.37 W/m2 OVC
12:05 26.6 °C 20.7 °C 1018.5 hPa Calm   1.6 km/h 70% 0 mm WeatherDisplay:10.37 W/m2 BKN
12:10 26.8 °C 20.4 °C 1018.5 hPa WNW 1.6 km/h 3.2 km/h 68% 0 mm WeatherDisplay:10.37 W/m2 BKN
12:15 26.8 °C 20.9 °C 1018.5 hPa Calm   1.6 km/h 70% 0 mm WeatherDisplay:10.37 W/m2 BKN
12:20 27.1 °C 21.2 °C 1018.2 hPa Calm   1.6 km/h 70% 0 mm WeatherDisplay:10.37 W/m2 BKN
12:25 27.4 °C 21.1 °C 1018.2 hPa Calm   1.6 km/h 68% 0 mm WeatherDisplay:10.37 W/m2 BKN
12:30 27.8 °C 20.8 °C 1018.2 hPa Calm   1.6 km/h 66% 0 mm WeatherDisplay:10.37 W/m2 BKN
12:35 28.2 °C 20.5 °C 1018.2 hPa Calm   1.6 km/h 63% 0 mm WeatherDisplay:10.37 W/m2 BKN
12:40 28.3 °C 20.8 °C 1018.2 hPa Calm   1.6 km/h 64% 0 mm WeatherDisplay:10.37 W/m2 BKN
12:45 28.3 °C 20.6 °C 1018.2 hPa Calm   1.6 km/h 63% 0 mm WeatherDisplay:10.37 W/m2 BKN
12:50 28.4 °C 20.7 °C 1017.8 hPa Calm   1.6 km/h 63% 0 mm WeatherDisplay:10.37 W/m2 BKN
12:55 28.7 °C 20.9 °C 1017.8 hPa Calm   1.6 km/h 63% 0 mm WeatherDisplay:10.37 W/m2 BKN
13:00 29 °C 20.4 °C 1017.8 hPa Calm   1.6 km/h 60% 0 mm WeatherDisplay:10.37 W/m2 BKN
13:05 29.1 °C 20.8 °C 1017.5 hPa Calm   1.6 km/h 61% 0 mm WeatherDisplay:10.37 W/m2 BKN
13:10 29.2 °C 20.6 °C 1017.5 hPa Calm   1.6 km/h 60% 0 mm WeatherDisplay:10.37 W/m2 BKN
13:15 29.3 °C 21.3 °C 1017.5 hPa Calm   1.6 km/h 62% 0 mm WeatherDisplay:10.37 W/m2 BKN
13:20 29.6 °C 20.7 °C 1017.5 hPa Calm   3.2 km/h 59% 0 mm WeatherDisplay:10.37 W/m2 BKN
13:25 29.8 °C 20.9 °C 1017.5 hPa Calm   1.6 km/h 59% 0 mm WeatherDisplay:10.37 W/m2 BKN
13:30 29.8 °C 20.6 °C 1017.5 hPa Calm   1.6 km/h 58% 0 mm WeatherDisplay:10.37 W/m2 BKN
13:35 29.2 °C 20.1 °C 1017.2 hPa WNW 1.6 km/h 4.8 km/h 58% 0 mm WeatherDisplay:10.37 W/m2 BKN
13:40 28.8 °C 20.6 °C 1017.2 hPa Calm     61% 0 mm WeatherDisplay:10.37 W/m2 BKN
13:45 28.5 °C 20.3 °C 1017.2 hPa Calm     61% 0 mm WeatherDisplay:10.37 W/m2 BKN
13:50 28.7 °C 20.9 °C 1017.2 hPa Calm   1.6 km/h 63% 0 mm WeatherDisplay:10.37 W/m2 BKN
13:55 28.7 °C 20.2 °C 1016.8 hPa Calm   1.6 km/h 60% 0 mm WeatherDisplay:10.37 W/m2 BKN
14:00 28.8 °C 20.8 °C 1016.8 hPa Calm   1.6 km/h 62% 0 mm WeatherDisplay:10.37 W/m2 BKN
14:05 28.7 °C 20.4 °C 1016.8 hPa Calm   3.2 km/h 61% 0 mm WeatherDisplay:10.37 W/m2 BKN
14:10 28.8 °C 21.3 °C 1016.8 hPa Calm     64% 0 mm WeatherDisplay:10.37 W/m2 BKN
14:15 28.9 °C 21.2 °C 1016.8 hPa Calm   1.6 km/h 63% 0 mm WeatherDisplay:10.37 W/m2 BKN
14:20 29 °C 20.2 °C 1016.8 hPa Calm   1.6 km/h 59% 0 mm WeatherDisplay:10.37 W/m2 BKN
14:25 29.1 °C 20.5 °C 1016.8 hPa Calm   1.6 km/h 60% 0 mm WeatherDisplay:10.37 W/m2 BKN
14:30 29 °C 20.4 °C 1016.5 hPa Calm   1.6 km/h 60% 0 mm WeatherDisplay:10.37 W/m2 BKN
14:35 28.9 °C 20.7 °C 1016.5 hPa Calm   1.6 km/h 61% 0 mm WeatherDisplay:10.37 W/m2 BKN
14:40 29.2 °C 21.1 °C 1016.5 hPa Calm   3.2 km/h 62% 0 mm WeatherDisplay:10.37 W/m2 BKN
14:45 29.3 °C 21.1 °C 1016.1 hPa Calm   1.6 km/h 61% 0 mm WeatherDisplay:10.37 W/m2 BKN
14:50 29.4 °C 20.3 °C 1016.1 hPa Calm   1.6 km/h 58% 0 mm WeatherDisplay:10.37 W/m2 BKN
14:55 29.3 °C 21 °C 1016.5 hPa Calm     61% 0 mm WeatherDisplay:10.37 W/m2 BKN
15:00 29.2 °C 21.1 °C 1016.1 hPa Calm   1.6 km/h 62% 0 mm WeatherDisplay:10.37 W/m2 BKN
15:05 29.3 °C 19.9 °C 1016.1 hPa Calm   1.6 km/h 57% 0 mm WeatherDisplay:10.37 W/m2 BKN
15:10 29.3 °C 19.9 °C 1016.1 hPa Calm   3.2 km/h 57% 0 mm WeatherDisplay:10.37 W/m2 BKN
15:15 29.2 °C 20.9 °C 1015.8 hPa Calm     61% 0 mm WeatherDisplay:10.37 W/m2 BKN
15:20 29.3 °C 20.4 °C 1015.8 hPa Calm   3.2 km/h 59% 0 mm WeatherDisplay:10.37 W/m2 BKN
15:30 29.2 °C 20.4 °C 1015.8 hPa Calm   1.6 km/h 59% 0 mm WeatherDisplay:10.37 W/m2 BKN
15:35 29.3 °C 20.5 °C 1015.8 hPa Calm   1.6 km/h 59% 0 mm WeatherDisplay:10.37 W/m2 BKN
15:40 29.3 °C 19.9 °C 1015.5 hPa Calm   3.2 km/h 57% 0 mm WeatherDisplay:10.37 W/m2 BKN
15:45 29.4 °C 20.6 °C 1015.5 hPa Calm     59% 0 mm WeatherDisplay:10.37 W/m2 BKN
15:50 29.6 °C 20.9 °C 1015.5 hPa Calm   1.6 km/h 60% 0 mm WeatherDisplay:10.37 W/m2 BKN
15:55 29.5 °C 20.9 °C 1015.5 hPa Calm     60% 0 mm WeatherDisplay:10.37 W/m2 BKN
16:00 29.4 °C 20.8 °C 1015.5 hPa Calm   1.6 km/h 60% 0 mm WeatherDisplay:10.37 W/m2 BKN
16:05 29.4 °C 20.3 °C 1015.5 hPa Calm     58% 0 mm WeatherDisplay:10.37 W/m2 BKN
16:10 29.3 °C 19.7 °C 1015.1 hPa Calm   1.6 km/h 56% 0 mm WeatherDisplay:10.37 W/m2 BKN
16:15 29.3 °C 20.4 °C 1015.1 hPa Calm     59% 0 mm WeatherDisplay:10.37 W/m2 BKN
16:20 29.2 °C 20.4 °C 1015.1 hPa Calm     59% 0 mm WeatherDisplay:10.37 W/m2 BKN
16:25 29.1 °C 20.3 °C 1015.1 hPa Calm     59% 0 mm WeatherDisplay:10.37 W/m2 BKN
16:30 29.1 °C 19.9 °C 1015.1 hPa Calm   1.6 km/h 58% 0 mm WeatherDisplay:10.37 W/m2 BKN
16:35 29.2 °C 19.8 °C 1015.1 hPa West 1.6 km/h 3.2 km/h 57% 0 mm WeatherDisplay:10.37 W/m2 BKN
16:40 29.2 °C 20.4 °C 1015.1 hPa Calm   3.2 km/h 59% 0 mm WeatherDisplay:10.37 W/m2 BKN
16:45 29.4 °C 20.6 °C 1014.8 hPa Calm   1.6 km/h 59% 0 mm WeatherDisplay:10.37 W/m2 BKN
16:50 29.6 °C 21.3 °C 1014.8 hPa Calm   1.6 km/h 61% 0 mm WeatherDisplay:10.37 W/m2 BKN
16:55 29.7 °C 20.3 °C 1015.1 hPa Calm   1.6 km/h 57% 0 mm WeatherDisplay:10.37 W/m2 BKN
17:00 29.5 °C 19.5 °C 1015.1 hPa Calm   1.6 km/h 55% 0 mm WeatherDisplay:10.37 W/m2 BKN
17:05 29.3 °C 19.9 °C 1015.1 hPa Calm     57% 0 mm WeatherDisplay:10.37 W/m2 BKN
17:10 29.2 °C 20.9 °C 1015.1 hPa Calm     61% 0 mm WeatherDisplay:10.37 W/m2 BKN
17:15 29.2 °C 21.4 °C 1015.1 hPa Calm     63% 0 mm WeatherDisplay:10.37 W/m2 BKN
17:20 29.4 °C 20.5 °C 1015.1 hPa Calm     59% 0 mm WeatherDisplay:10.37 W/m2 BKN
17:25 29.7 °C 21.1 °C 1015.1 hPa Calm   1.6 km/h 60% 0 mm WeatherDisplay:10.37 W/m2 BKN
17:30 29.8 °C 20.7 °C 1014.8 hPa NNW 1.6 km/h 3.2 km/h 58% 0 mm WeatherDisplay:10.37 W/m2 BKN
17:40 29.8 °C 20.7 °C 1014.8 hPa Calm   1.6 km/h 58% 0 mm WeatherDisplay:10.37 W/m2 BKN
17:45 29.7 °C 20.8 °C 1014.8 hPa Calm   3.2 km/h 59% 0 mm WeatherDisplay:10.37 W/m2 BKN
17:50 29.4 °C 20.8 °C 1014.8 hPa Calm   3.2 km/h 60% 0 mm WeatherDisplay:10.37 W/m2 BKN
17:55 29.2 °C 21.2 °C 1014.8 hPa Calm     62% 0 mm WeatherDisplay:10.37 W/m2 BKN
18:00 29.1 °C 20.8 °C 1014.8 hPa Calm     61% 0 mm WeatherDisplay:10.37 W/m2 BKN
18:10 28.9 °C 20.9 °C 1014.8 hPa Calm   1.6 km/h 62% 0 mm WeatherDisplay:10.37 W/m2 BKN
18:15 28.9 °C 20.9 °C 1014.8 hPa Calm     62% 0 mm WeatherDisplay:10.37 W/m2 BKN
18:20 29.1 °C 21.3 °C 1014.8 hPa Calm     63% 0 mm WeatherDisplay:10.37 W/m2 BKN
18:25 29.1 °C 20.8 °C 1014.8 hPa Calm   1.6 km/h 61% 0 mm WeatherDisplay:10.37 W/m2 BKN
18:30 29 °C 20.7 °C 1014.8 hPa Calm     61% 0 mm WeatherDisplay:10.37 W/m2 BKN
18:35 28.9 °C 20.7 °C 1014.8 hPa Calm   1.6 km/h 61% 0 mm WeatherDisplay:10.37 W/m2 BKN
18:40 28.9 °C 20.9 °C 1014.8 hPa Calm     62% 0 mm WeatherDisplay:10.37 W/m2 BKN
18:50 28.7 °C 21 °C 1014.8 hPa Calm   1.6 km/h 63% 0 mm WeatherDisplay:10.37 W/m2 BKN
18:55 28.6 °C 21.1 °C 1014.8 hPa Calm   1.6 km/h 64% 0 mm WeatherDisplay:10.37 W/m2 BKN
19:00 28.4 °C 21.2 °C 1014.8 hPa Calm   1.6 km/h 65% 0 mm WeatherDisplay:10.37 W/m2 BKN
19:10 28.2 °C 21.4 °C 1014.8 hPa Calm     67% 0 mm WeatherDisplay:10.37 W/m2 BKN
19:15 28 °C 21.3 °C 1014.8 hPa Calm     67% 0 mm WeatherDisplay:10.37 W/m2 BKN
19:20 27.8 °C 21.4 °C 1014.8 hPa Calm     68% 0 mm WeatherDisplay:10.37 W/m2 BKN
19:25 27.7 °C 21.2 °C 1014.8 hPa Calm     68% 0 mm WeatherDisplay:10.37 W/m2 BKN
19:30 27.6 °C 21.3 °C 1014.8 hPa Calm     69% 0 mm WeatherDisplay:10.37 W/m2 BKN
19:35 27.4 °C 21.2 °C 1015.1 hPa Calm     69% 0 mm WeatherDisplay:10.37 W/m2 BKN
19:40 27.3 °C 21.2 °C 1015.1 hPa Calm     69% 0 mm WeatherDisplay:10.37 W/m2 BKN
19:45 27.3 °C 21.3 °C 1015.1 hPa Calm     70% 0 mm WeatherDisplay:10.37 W/m2 BKN
19:50 27.1 °C 21.2 °C 1015.1 hPa Calm     70% 0 mm WeatherDisplay:10.37 W/m2 BKN
19:55 27 °C 21.1 °C 1015.5 hPa Calm     70% 0 mm WeatherDisplay:10.37 W/m2 BKN
20:05 26.9 °C 21.2 °C 1015.5 hPa Calm     71% 0 mm WeatherDisplay:10.37 W/m2 BKN
20:10 26.8 °C 21.3 °C 1015.5 hPa Calm     72% 0 mm WeatherDisplay:10.37 W/m2 BKN
20:15 26.7 °C 21.3 °C 1015.5 hPa Calm     72% 0 mm WeatherDisplay:10.37 W/m2 BKN
20:20 26.6 °C 21.2 °C 1015.5 hPa Calm     72% 0 mm WeatherDisplay:10.37 W/m2 BKN
20:25 26.6 °C 21.1 °C 1015.5 hPa Calm     72% 0 mm WeatherDisplay:10.37 W/m2 BKN
20:30 26.4 °C 21.2 °C 1015.5 hPa Calm     73% 0 mm WeatherDisplay:10.37 W/m2 BKN
20:35 26.3 °C 21.1 °C 1015.1 hPa Calm     73% 0 mm WeatherDisplay:10.37 W/m2 BKN
20:40 26.3 °C 21 °C 1015.5 hPa Calm     73% 0 mm WeatherDisplay:10.37 W/m2 BKN
20:45 26.1 °C 21.1 °C 1015.5 hPa Calm     74% 0 mm WeatherDisplay:10.37 W/m2 BKN
20:50 26 °C 21 °C 1015.5 hPa Calm     74% 0 mm WeatherDisplay:10.37 W/m2 BKN
20:55 25.9 °C 20.9 °C 1015.1 hPa Calm     74% 0 mm WeatherDisplay:10.37 W/m2 BKN
21:00 25.7 °C 20.9 °C 1015.5 hPa Calm     75% 0 mm WeatherDisplay:10.37 W/m2 BKN
21:05 25.6 °C 20.9 °C 1015.5 hPa Calm     75% 0 mm WeatherDisplay:10.37 W/m2 BKN
21:10 25.6 °C 21.1 °C 1015.5 hPa Calm     76% 0 mm WeatherDisplay:10.37 W/m2 BKN
21:15 25.5 °C 20.9 °C 1015.5 hPa Calm     76% 0 mm WeatherDisplay:10.37 W/m2 BKN
21:20 25.4 °C 20.9 °C 1015.5 hPa Calm     76% 0 mm WeatherDisplay:10.37 W/m2 OVC
21:25 25.3 °C 20.8 °C 1015.5 hPa Calm     76% 0 mm WeatherDisplay:10.37 W/m2 OVC
21:30 25.3 °C 20.9 °C 1015.5 hPa Calm     77% 0 mm WeatherDisplay:10.37 W/m2 OVC
21:35 25.2 °C 20.9 °C 1015.5 hPa Calm     77% 0 mm WeatherDisplay:10.37 W/m2 OVC
21:40 25.1 °C 20.8 °C 1015.8 hPa Calm     77% 0 mm WeatherDisplay:10.37 W/m2 OVC
21:45 25.1 °C 20.9 °C 1015.8 hPa Calm     78% 0 mm WeatherDisplay:10.37 W/m2 OVC
21:55 24.9 °C 21 °C 1015.8 hPa Calm     79% 0 mm WeatherDisplay:10.37 W/m2 OVC
22:00 24.8 °C 20.9 °C 1015.8 hPa Calm     79% 0 mm WeatherDisplay:10.37 W/m2 OVC
22:05 24.7 °C 21.1 °C 1015.8 hPa Calm     80% 0 mm WeatherDisplay:10.37 W/m2 OVC
22:10 24.7 °C 21 °C 1016.1 hPa Calm     80% 0 mm WeatherDisplay:10.37 W/m2 OVC
22:15 24.7 °C 21 °C 1016.1 hPa Calm     80% 0 mm WeatherDisplay:10.37 W/m2 OVC
22:20 24.6 °C 21.2 °C 1016.1 hPa Calm     81% 0 mm WeatherDisplay:10.37 W/m2 BKN
22:25 24.6 °C 21.2 °C 1016.1 hPa Calm     81% 0 mm WeatherDisplay:10.37 W/m2 BKN
22:30 24.6 °C 21.1 °C 1016.1 hPa Calm     81% 0 mm WeatherDisplay:10.37 W/m2 BKN
22:35 24.6 °C 21.1 °C 1016.1 hPa Calm     81% 0 mm WeatherDisplay:10.37 W/m2 BKN
22:40 24.6 °C 21.1 °C 1016.1 hPa Calm     81% 0 mm WeatherDisplay:10.37 W/m2 BKN
22:45 24.6 °C 21.1 °C 1016.1 hPa Calm     81% 0 mm WeatherDisplay:10.37 W/m2 BKN
22:50 24.6 °C 21.3 °C 1016.1 hPa Calm     82% 0 mm WeatherDisplay:10.37 W/m2 BKN
22:55 24.6 °C 21.3 °C 1016.1 hPa Calm     82% 0 mm WeatherDisplay:10.37 W/m2 BKN
23:00 24.5 °C 21.2 °C 1016.1 hPa Calm     82% 0 mm WeatherDisplay:10.37 W/m2 BKN
23:05 24.5 °C 21.2 °C 1016.1 hPa Calm     82% 0 mm WeatherDisplay:10.37 W/m2 BKN
23:10 24.5 °C 21.2 °C 1016.1 hPa Calm     82% 0 mm WeatherDisplay:10.37 W/m2 BKN
23:25 24.4 °C 21.4 °C 1016.1 hPa Calm     83% 0 mm WeatherDisplay:10.37 W/m2 -RA
23:30 24.5 °C 21.4 °C 1016.1 hPa Calm     83% 0 mm WeatherDisplay:10.37 W/m2 -RA
23:35 24.4 °C 21.4 °C 1015.8 hPa Calm     83% 0 mm WeatherDisplay:10.37 W/m2 -RA
23:40 24.4 °C 21.4 °C 1015.8 hPa Calm     83% 0 mm WeatherDisplay:10.37 W/m2 -RA
23:45 24.4 °C 21.4 °C 1015.8 hPa Calm     83% 0 mm WeatherDisplay:10.37 W/m2 -RA
23:50 24.4 °C 21.2 °C 1015.8 hPa Calm     82% 0 mm WeatherDisplay:10.37 W/m2 BKN
23:55 24.4 °C 20.9 °C 1015.5 hPa Calm     81% 0 mm WeatherDisplay:10.37 W/m2 BKN
Piedmont Bend
Compliments of Weather Underground - 4 mb